Voltar ao catálogo

LEASAT 4

AtivoMilitarGEO
NORAD 15995·PAYLOAD·🇺🇸 United States

Lançado Aug 27, 1985 de Cape Canaveral Space Force Station

Loading…

TLE

AtualizadoSource: Space-Track

Época: Sep 14, 2026, 10:57 UTC

1 15995U 85076D   26257.45691402 -.00000198  00000-0  00000-0 0  9997
2 15995   9.9627 330.3303 0007012 325.4695  27.7612  0.97800921119005

Acompanhe LEASAT 4 em tempo real com AllMySat

Download on the App Store